Location: Vancouver
(49.2500°N, 123.1330°W)
Time: 20:35:10
(UTC-07:00)

ISS - Visible Passes

Search period start: 05 May 2016 00:00
Search period end: 15 May 2016 00:00
Orbit: 402 x 405 km, 51.6° (Epoch: 05 May)

Date Brightness Start Highest point End Pass type
(mag) Time Alt. Az. Time Alt. Az. Time Alt. Az.
10 May -0.7 04:32:02 10° SSE 04:33:27 12° SE 04:34:52 10° ESE visible
12 May -1.6 04:22:01 12° SSW 04:24:23 23° SE 04:27:03 10° E visible
13 May -1.1 03:31:19 14° SSE 03:31:58 14° SE 03:33:51 10° ESE visible
14 May -2.7 04:13:10 17° SW 04:15:22 42° SSE 04:18:30 10° ENE visible
